Content
SEND FEEDBACK

Daily
Averages
Monthly
Summary
Canada

VANCOUVER, BRITISH COLUMBIA


Home > North America > Canada > British Columbia
Elevation: 7 feet     Latitude: 49 11N     Longitude: 123 10W

WEATHER
 
SELECT A DAY
Number of Records: 249,675;   Date Range: 5/15/97 - 8/27/14
 
SHARE

PRINT THIS DATA

[ ← Previous Day ]
WEATHER ALMANAC - OCTOBER 29, 2013
[ Next Day → ]
[ °C ]   °F
Weather ElementAverageHighLow
Temperature45.7 °F53.6 °F (1:35 pm)37.4 °F (6:35 am)
Dewpoint35.3 °F39.2 °F (1:15 pm)28.4 °F (12:55 am)
Humidity68.9 %100 % (10:15 pm)43 % (12:55 am)
Barometer29.98 in30.02 in (11:55 am)29.95 in (12:35 am)
Wind Speed2.5 mph8.1 mph (12:35 am)
Weather ElementAverage
Visibility9.6 mi
Wind DirectionENE (56.9 °)

Weather ElementTotal
Precipitation---
Heating Degree Days19.5 (Base 65)
Averaged from 71 records on October 29, 2013
WEATHER CONDITIONS BREAKOUT
WIND DIRECTION BREAKOUT
WEATHER BY HOUR - OCTOBER 29, 2013
[ °C ]   °F
Local TimeTemperatureDewpointHumidityBarometerVisibilityWind DirectionWind SpeedGust SpeedPrecipitationEventsConditions
12:35 AM50.0 °F32.0 °F50 %29.95 in10.0 miNNE (30°)8.1 mphClear
12:55 AM50.0 °F28.4 °F43 %29.95 in10.0 miNE (40°)8.1 mphClear
1:15 AM50.0 °F32.0 °F50 %29.96 in10.0 miNE (50°)5.8 mphClear
1:35 AM50.0 °F32.0 °F50 %29.95 in10.0 miNNE (20°)8.1 mphClear
1:55 AM50.0 °F32.0 °F50 %29.96 in10.0 miNE (40°)5.8 mphClear
2:15 AM50.0 °F28.4 °F43 %29.96 in10.0 miNNE (30°)3.5 mphClear
2:35 AM50.0 °F28.4 °F43 %29.95 in10.0 miNNE (30°)5.8 mphClear
2:55 AM50.0 °F28.4 °F43 %29.95 in10.0 miNNE (20°)4.6 mphClear
3:15 AM48.2 °F28.4 °F46 %29.95 in10.0 miNE (40°)4.6 mphClear
3:35 AM48.2 °F30.2 °F50 %29.95 in10.0 miCalmClear
3:55 AM48.2 °F30.2 °F50 %29.95 in10.0 miNorth (360°)5.8 mphClear
4:15 AM48.2 °F30.2 °F50 %29.95 in10.0 miCalmClear
4:35 AM46.4 °F28.4 °F50 %29.95 in10.0 miCalmClear
4:55 AM46.4 °F30.2 °F53 %29.95 in10.0 miCalmClear
5:15 AM42.8 °F32.0 °F66 %29.96 in10.0 miCalmClear
5:35 AM39.2 °F32.0 °F75 %29.96 in10.0 miCalmClear
5:55 AM39.2 °F32.0 °F75 %29.96 in10.0 miCalmClear
6:15 AM39.2 °F32.0 °F75 %29.97 in10.0 miCalmClear
6:35 AM37.4 °F32.0 °F81 %29.97 in10.0 miCalmClear
6:55 AM37.4 °F32.0 °F81 %29.97 in10.0 miCalmClear
7:15 AM37.4 °F32.0 °F81 %29.98 in10.0 miCalmClear
7:35 AM37.4 °F32.0 °F81 %29.98 in10.0 miCalmClear
7:55 AM37.4 °F32.0 °F81 %29.98 in10.0 miCalmClear
8:15 AM37.4 °F32.0 °F81 %29.99 in9.0 miCalmClear
8:35 AM37.4 °F33.8 °F87 %29.99 in9.0 miCalmClear
8:55 AM37.4 °F33.8 °F87 %30.00 in8.0 miCalmClear
9:15 AM39.2 °F35.6 °F87 %30.01 in10.0 miCalmClear
9:35 AM42.8 °F37.4 °F81 %30.01 in9.0 miCalmClear
9:55 AM44.6 °F37.4 °F76 %30.01 in10.0 miCalmClear
10:15 AM48.2 °F37.4 °F66 %30.01 in9.0 miCalmClear
10:35 AM48.2 °F35.6 °F62 %30.01 in10.0 miCalmClear
10:55 AM48.2 °F35.6 °F62 %30.01 in10.0 miCalmClear
11:15 AM48.2 °F35.6 °F62 %30.01 in9.0 miCalmClear
11:35 AM48.2 °F35.6 °F62 %30.01 in9.0 miSSW (210°)5.8 mphClear
11:55 AM50.0 °F35.6 °F58 %30.02 in9.0 miCalmClear
12:15 PM50.0 °F37.4 °F62 %30.01 in10.0 miSSW (200°)6.9 mphClear
12:35 PM51.8 °F37.4 °F58 %30.01 in10.0 miSSW (200°)6.9 mphClear
12:55 PM51.8 °F37.4 °F58 %30.00 in9.0 miSouth (190°)5.8 mphClear
1:15 PM51.8 °F39.2 °F62 %30.00 in10.0 miSouth (190°)4.6 mphClear
1:35 PM53.6 °F39.2 °F58 %29.99 in10.0 miSSW (200°)6.9 mphClear
1:55 PM53.6 °F39.2 °F58 %29.99 in10.0 miSSW (200°)5.8 mphClear
2:15 PM53.6 °F37.4 °F54 %29.99 in10.0 miSSW (210°)6.9 mphClear
2:35 PM53.6 °F37.4 °F54 %29.99 in10.0 miSSW (200°)6.9 mphClear
2:55 PM53.6 °F37.4 °F54 %29.99 in10.0 miSouth (190°)5.8 mphClear
3:15 PM53.6 °F35.6 °F51 %29.98 in10.0 miSSW (200°)8.1 mphClear
3:35 PM53.6 °F35.6 °F51 %29.98 in10.0 miSSW (200°)8.1 mphClear
3:55 PM53.6 °F39.2 °F58 %29.98 in10.0 miSSW (210°)6.9 mphClear
4:15 PM53.6 °F39.2 °F58 %29.98 in10.0 miSSW (200°)6.9 mphClear
4:35 PM51.8 °F39.2 °F62 %29.97 in10.0 miSSW (210°)6.9 mphClear
4:55 PM51.8 °F39.2 °F62 %29.98 in10.0 miSSW (200°)5.8 mphClear
5:15 PM50.0 °F37.4 °F62 %29.98 in10.0 miCalmClear
5:35 PM48.2 °F39.2 °F71 %29.97 in10.0 miCalmClear
5:55 PM44.6 °F39.2 °F81 %29.97 in10.0 miCalmClear
6:15 PM48.2 °F37.4 °F66 %29.97 in10.0 miCalmClear
6:35 PM48.2 °F39.2 °F71 %29.97 in10.0 miSouth (170°)4.6 mphClear
6:55 PM46.4 °F39.2 °F76 %29.98 in10.0 miNorthClear
7:15 PM44.6 °F39.2 °F81 %29.99 in10.0 miCalmClear
7:35 PM42.8 °F37.4 °F81 %29.99 in9.0 miCalmClear
7:55 PM41.0 °F37.4 °F87 %29.99 in9.0 miCalmClear
8:15 PM41.0 °F37.4 °F87 %29.99 in9.0 miCalmClear
8:35 PM41.0 °F37.4 °F87 %30.00 in10.0 miCalmClear
8:55 PM41.0 °F37.4 °F87 %30.00 in9.0 miCalmClear
9:15 PM39.2 °F37.4 °F93 %30.00 in7.0 miCalmClear
9:35 PM39.2 °F37.4 °F93 %29.99 in7.0 miCalmClear
9:55 PM39.2 °F37.4 °F93 %30.00 in9.0 miCalmClear
10:15 PM39.2 °F39.2 °F100 %30.00 in9.0 miCalmClear
10:35 PM41.0 °F39.2 °F93 %30.01 in7.0 miCalmClear
10:55 PM39.2 °F39.2 °F100 %30.00 in8.0 miCalmClear
11:15 PM39.2 °F37.4 °F93 %30.00 in10.0 miCalmClear
11:35 PM39.2 °F37.4 °F93 %30.01 in8.0 miNorthClear
11:55 PM39.2 °F39.2 °F100 %30.01 in10.0 miCalmClear
Hourly data recorded from CZBB, located miles away from Vancouver, British Columbia







STORIES FROM OUR PARTNERS